User: anonymous   Login
Location: Boiro
(42.6475°N, 8.8834°W)
Time: 05:21:49
(UTC+01:00)
Language:

DOVE 4 - Orbit

View from above orbital plane
View from above orbital plane
View from above satellite
View from above satellite

Ground track
Ground track

The orbit data is extracted from the following two-line orbital elements,

1 39430U 13066Q   22024.73747178  .00000490  00000-0  96186-4 0  9996
2 39430  97.8157 300.1231 0150883 137.4063 223.8964 14.59819049435328
Epoch (UTC): 24 January 2022 17:41:57
Eccentricity: 0.0150883
inclination: 97.8157°
perigee height: 587 km
apogee height: 800 km
right ascension of ascending node: 300.1231°
argument of perigee: 137.4063°
revolutions per day: 14.59819049
mean anomaly at epoch: 223.8964°
orbit number at epoch: 43532

The dashed part of the orbit path shows where the satellite is in the earth's shadow,  

DLR